CW6575 Weather Reports


Display with metric or nautical units.
time (UTC)temp
F
wind
direction
speed
MPH
gust
MPH
rain 1hr
in
rain 24hr
in
rain mn
in
humidity
%
barometer
mb
20260903184511 88 341 1.0 4.0 0.00 0.00 0.00 59 1014.7
20260903183015 88 156 0.0 4.0 0.00 0.00 0.00 59 1014.6
20260903181506 87 279 2.0 7.0 0.00 0.00 0.00 61 1014.9
20260903180005 89 331 1.0 4.0 0.00 0.00 0.00 58 1014.9
20260903174503 87 279 2.0 5.0 0.00 0.00 0.00 60 1015.1
20260903173002 87 287 0.0 5.0 0.00 0.00 0.00 61 1015.2
20260903171500 87 179 1.0 6.0 0.00 0.00 0.00 62 1015.1
20260903170100 88 166 0.0 4.0 0.00 0.00 0.00 60 1015.2
20260903164557 86 310 0.0 4.0 0.00 0.00 0.00 62 1015.5
20260903163053 85 331 0.0 4.0 0.00 0.00 0.00 66 1015.6
20260903161609 85 302 1.0 5.0 0.00 0.00 0.00 66 1015.8
20260903160051 85 311 1.0 4.0 0.00 0.00 0.00 66 1016.1
20260903154550 85 17 1.0 9.0 0.00 0.00 0.00 65 1016.1
20260903153048 85 355 1.0 3.0 0.00 0.00 0.00 67 1016.1
20260903151546 84 306 1.0 5.0 0.00 0.00 0.00 67 1016.1
20260903150043 83 298 0.0 4.0 0.00 0.00 0.00 68 1016.2
20260903144541 83 171 0.0 3.0 0.00 0.00 0.00 71 1016.2
20260903143041 81 163 3.0 5.0 0.00 0.00 0.00 73 1016.2
20260903141532 80 155 0.0 3.0 0.00 0.00 0.00 79 1016.2
20260903140028 77 157 0.0 2.0 0.00 0.00 0.00 84 1016.2
20260903134527 75 157 0.0 2.0 0.00 0.00 0.00 87 1016.3
20260903133020 74 157 0.0 0.0 0.00 0.00 0.00 88 1016.4
20260903131521 73 157 0.0 2.0 0.00 0.00 0.00 90 1016.5
20260903130012 72 157 0.0 0.0 0.00 0.00 0.00 91 1016.6
20260903124507 71 157 1.0 3.0 0.00 0.00 0.00 92 1016.7
20260903123003 70 151 2.0 4.0 0.00 0.00 0.00 93 1016.7
20260903121501 69 158 0.0 2.0 0.00 0.00 0.00 94 1016.9
20260903114600 68 151 0.0 2.0 0.00 0.00 0.00 94 1016.8
20260903113055 67 155 0.0 3.0 0.00 0.00 0.00 94 1016.7
20260903111553 67 155 0.0 1.0 0.00 0.00 0.00 94 1016.6
20260903110052 67 163 0.0 5.0 0.00 0.00 0.00 94 1016.3
20260903104550 67 150 3.0 5.0 0.00 0.00 0.00 94 1016.2
20260903103048 67 159 0.0 0.0 0.00 0.00 0.00 93 1016.1
20260903101547 68 159 0.0 2.0 0.00 0.00 0.00 93 1016.0
20260903100047 68 149 1.0 5.0 0.00 0.00 0.00 93 1015.8
20260903094555 68 149 0.0 3.0 0.00 0.00 0.00 93 1015.9
20260903093050 68 149 1.0 3.0 0.00 0.00 0.00 92 1015.8
20260903091555 69 171 1.0 4.0 0.00 0.00 0.00 92 1015.8
20260903090044 69 170 2.0 5.0 0.00 0.00 0.00 92 1015.7
20260903084543 68 150 2.0 6.0 0.00 0.00 0.00 93 1015.6
20260903083042 68 147 1.0 3.0 0.00 0.00 0.00 93 1015.6
20260903081547 68 147 0.0 3.0 0.00 0.00 0.00 93 1015.7
20260903080041 68 146 2.0 3.0 0.00 0.00 0.00 92 1015.7
20260903074542 68 146 3.0 6.0 0.00 0.00 0.00 92 1015.7
20260903073046 68 155 1.0 5.0 0.00 0.00 0.00 92 1015.7
20260903071540 68 144 3.0 5.0 0.00 0.00 0.00 92 1015.7
20260903070038 68 153 2.0 5.0 0.00 0.00 0.00 92 1015.6
20260903064537 68 150 2.0 5.0 0.00 0.00 0.00 92 1015.7
20260903063037 68 168 3.0 6.0 0.00 0.00 0.00 92 1015.8
20260903061536 68 153 2.0 5.0 0.00 0.00 0.00 92 1015.8
20260903060035 68 145 2.0 4.0 0.00 0.00 0.00 92 1015.9
20260903054535 68 142 2.0 4.0 0.00 0.00 0.00 92 1016.0
20260903053033 68 148 3.0 5.0 0.00 0.00 0.00 92 1015.8
20260903051532 68 148 2.0 5.0 0.00 0.00 0.00 92 1015.7
20260903050031 69 142 2.0 5.0 0.00 0.00 0.00 92 1015.6
20260903044530 69 159 2.0 6.0 0.00 0.00 0.00 92 1015.7
20260903043028 69 171 1.0 5.0 0.00 0.00 0.00 92 1015.7
20260903041527 69 157 2.0 4.0 0.00 0.00 0.00 92 1015.7
20260903040028 69 163 0.0 3.0 0.00 0.00 0.00 92 1015.9
20260903034523 70 163 0.0 3.0 0.00 0.00 0.00 92 1016.0
20260903033023 70 158 0.0 1.0 0.00 0.00 0.00 91 1015.9
20260903031524 70 157 1.0 5.0 0.00 0.00 0.00 91 1015.8
20260903030028 71 144 3.0 6.0 0.00 0.00 0.00 91 1015.8
20260903024521 71 156 2.0 5.0 0.00 0.00 0.00 91 1015.9
20260903023022 71 149 2.0 4.0 0.00 0.00 0.00 91 1015.9
20260903021521 71 200 2.0 4.0 0.00 0.00 0.00 91 1016.1
20260903020034 71 161 0.0 3.0 0.00 0.00 0.00 90 1016.1
20260903014519 72 179 2.0 4.0 0.00 0.00 0.00 90 1016.0
20260903013020 73 160 1.0 6.0 0.00 0.00 0.00 88 1016.1
20260903011519 73 161 2.0 6.0 0.00 0.00 0.00 88 1015.8
20260903010018 73 163 1.0 4.0 0.00 0.00 0.00 88 1015.9
20260903004517 74 157 0.0 2.0 0.00 0.00 0.00 88 1015.9
20260903003017 74 156 0.0 3.0 0.00 0.00 0.00 87 1015.8
20260903001517 74 157 1.0 3.0 0.00 0.00 0.00 87 1015.4
20260903000016 76 144 0.0 3.0 0.00 0.00 0.00 86 1015.3
20260902234514 76 161 0.0 2.0 0.00 0.00 0.00 84 1015.4
20260902233016 77 146 2.0 3.0 0.00 0.00 0.00 82 1015.4
20260902231514 80 176 1.0 2.0 0.00 0.00 0.00 77 1015.4
20260902230016 84 275 0.0 3.0 0.00 0.00 0.00 66 1015.5
20260902224514 86 294 0.0 2.0 0.00 0.00 0.00 65 1015.3
20260902223015 86 311 0.0 1.0 0.00 0.00 0.00 66 1015.4
20260902221518 87 311 0.0 3.0 0.00 0.00 0.00 58 1015.3
20260902220111 87 292 1.0 4.0 0.00 0.00 0.00 57 1015.3
20260902214510 88 331 1.0 3.0 0.00 0.00 0.00 56 1015.4
20260902213010 89 299 1.0 3.0 0.00 0.00 0.00 56 1015.4
20260902211514 88 355 0.0 3.0 0.00 0.00 0.00 61 1015.2
20260902210006 87 333 1.0 4.0 0.00 0.00 0.00 59 1015.5
20260902204504 88 330 2.0 5.0 0.00 0.00 0.00 59 1015.6
20260902203004 88 42 2.0 6.0 0.00 0.00 0.00 59 1015.7
20260902201503 88 293 1.0 5.0 0.00 0.00 0.00 58 1015.6
20260902194602 87 327 2.0 4.0 0.00 0.00 0.00 61 1015.8
20260902193057 87 330 2.0 5.0 0.00 0.00 0.00 61 1016.1
20260902191556 87 344 2.0 4.0 0.00 0.00 0.00 62 1016.2
20260902190058 88 329 1.0 5.0 0.00 0.00 0.00 59 1016.3